Weather History for Jefferson City, MO

Change the Weather History Date:

Thursday, June 27, 2013

  Actual Average Record
Temperature  
Mean Temperature 80 °F -  
Max Temperature 93 °F 87 °F 102 °F (1934)
Min Temperature 69 °F 63 °F 49 °F (1958)
Cooling Degree Days 15    
Growing Degree Days 30 (Base 50)    
Moisture  
Dew Point 67 °F    
Average Humidity 66    
Maximum Humidity 87    
Minimum Humidity 35    
Precipitation  
Precipitation 0.00 in - - ()
Sea Level Pressure  
Sea Level Pressure 29.86 in    
Wind  
Wind Speed 3 mph (WNW)    
Max Wind Speed 10 mph    
Max Gust Speed -    
Visibility 10 miles    
Events      
Averages and records for this station are not official NWS values.
T = Trace of Precipitation, MM = Missing Value Source: NWS Daily Summary

Daily Weather History Graph

Daily Weather History Graph

Search for Another Location

Airport:

Trip Planner

Search our weather history database for the weather conditions in past years. The results will help you decide how hot, cold, wet, or windy it might be!

Date:

Astronomy

Jun. 27, 2013 Rise Set
Actual Time 5:46 AM CDT 8:37 PM CDT
Civil Twilight 5:14 AM CDT 9:08 PM CDT
Nautical Twilight 4:34 AM CDT 9:48 PM CDT
Astronomical Twilight 3:48 AM CDT 10:34 PM CDT
Moon 11:38 PM CDT (6/27) 10:44 AM CDT (6/27)
Length of Visible Light 15h 54m
Length of Day
14h 50m
Waning Gibbous, 76% of the Moon is Illuminated
Jun 27
Waning Gibbous
Jun 29
Last Quarter
Jul 8
New
Jul 15
First Quarter
Jul 22
Full

Hourly Weather History & Observations

Time (CDT) Temp. Heat Index Dew Point Humidity Pressure Visibility Wind Dir Wind Speed Gust Speed Precip Events Conditions
12:53 AM 73.0 °F - 66.0 °F 79% 29.83 in 10.0 mi Calm Calm - N/A   Clear
1:53 AM 73.0 °F - 64.9 °F 76% 29.83 in 10.0 mi WNW 3.5 mph - N/A   Clear
2:53 AM 72.0 °F - 66.0 °F 81% 29.83 in 10.0 mi Calm Calm - N/A   Clear
3:53 AM 70.0 °F - 66.0 °F 87% 29.85 in 10.0 mi Calm Calm - N/A   Clear
4:53 AM 69.1 °F - 64.9 °F 87% 29.86 in 10.0 mi Calm Calm - N/A   Clear
5:53 AM 69.1 °F - 64.9 °F 87% 29.87 in 10.0 mi Calm Calm - N/A   Clear
6:53 AM 72.0 °F - 66.0 °F 81% 29.87 in 10.0 mi Calm Calm - N/A   Clear
7:53 AM 75.9 °F - 66.0 °F 71% 29.88 in 10.0 mi WNW 3.5 mph - N/A   Clear
8:53 AM 81.0 °F 83.3 °F 66.9 °F 62% 29.89 in 10.0 mi NW 3.5 mph - N/A   Clear
9:53 AM 84.9 °F 87.1 °F 66.0 °F 53% 29.88 in 10.0 mi West 4.6 mph - N/A   Clear
10:53 AM 89.1 °F 91.0 °F 64.9 °F 45% 29.89 in 10.0 mi NNW 6.9 mph - N/A   Clear
11:53 AM 91.9 °F 91.8 °F 61.0 °F 35% 29.89 in 10.0 mi NW 8.1 mph - N/A   Clear
12:53 PM 91.0 °F 91.9 °F 63.0 °F 39% 29.88 in 10.0 mi West 10.4 mph - N/A   Clear
1:53 PM 91.0 °F 93.0 °F 64.9 °F 42% 29.89 in 10.0 mi WNW 10.4 mph - N/A   Clear
2:53 PM 89.1 °F 92.1 °F 66.9 °F 48% 29.90 in 10.0 mi NW 9.2 mph - N/A   Clear
3:53 PM 88.0 °F 91.4 °F 68.0 °F 51% 29.88 in 10.0 mi NW 5.8 mph - N/A   Clear
4:53 PM 87.1 °F 91.3 °F 69.1 °F 55% 29.86 in 10.0 mi Calm Calm - N/A   Partly Cloudy
5:53 PM 86.0 °F 89.4 °F 68.0 °F 55% 29.80 in 10.0 mi SSE 6.9 mph - N/A   Partly Cloudy
6:53 PM 86.0 °F 90.1 °F 69.1 °F 57% 29.81 in 10.0 mi WNW 8.1 mph - N/A   Clear
7:53 PM 82.9 °F 87.5 °F 71.1 °F 67% 29.79 in 10.0 mi NNW 4.6 mph - N/A   Partly Cloudy
8:53 PM 79.0 °F - 73.0 °F 82% 29.81 in 10.0 mi NW 4.6 mph - N/A   Clear
9:53 PM 77.0 °F - 72.0 °F 84% 29.85 in 10.0 mi Calm Calm - N/A   Clear
10:53 PM 77.0 °F - 72.0 °F 84% 29.86 in 10.0 mi NW 3.5 mph - N/A   Clear
11:53 PM 75.9 °F - 72.0 °F 87% 29.84 in 10.0 mi Calm Calm - N/A   Clear